Location: Dompnac
(44.5644°N, 4.1026°E)
Time: 04:16:59
(UTC+00:00)

Cosmos 1626 - Pass Details

Date: 26 January 2021
Orbit: 490 x 493 km, 82.5° (Epoch: 07 March)

Event Time Altitude Azimuth Distance (km) Brightness Sun altitude
Rises 17:33:07 0° 239° (WSW) 2,567 7.6 -8.9°
Reaches altitude 10° 17:36:52 10° 279° (W) 1,691 6.0 -9.5°
Maximum altitude 17:37:46 11° 293° (WNW) 1,650 5.6 -9.7°
Drops below altitude 10° 17:38:39 10° 307° (NW) 1,694 5.3 -9.9°
Sets 17:42:26 0° 347° (NNW) 2,583 5.7 -10.5°
